Ralf Busch

Recruteur - SC Freiburg
3 Déc 2028
Dimanche
Processus

Personnalité

Adaptabilité (11) Ambition (4) Controverse (6) Loyauté (16) Pression (2) Professionnalisme (9) Sportivité (17) Tempérament (16)

Profil

Style d'entraînement Démocratique
Diplôme Continental A
Détermination 11
Gestion des joueurs 9
Motivation 10
Discipline 8
Satisfaction professionnelle
100%
Fatigue
0%
Rôle Recruteur
Salaire 94.3K p/s
Contrat 14.03.2029

Performance

Comportement Bon
Efficacité de l'entraînement
45%
Développement des joueurs
45%
Prévention des blessures
50%
Mise en place tactique
45%

Événements récents

A participé à une réunion de recrutement maintenant
A évalué un joueur maintenant
A évalué un joueur maintenant
A évalué un joueur maintenant
A observé un match maintenant
A observé un match maintenant
A observé un match maintenant
A observé un match maintenant

Suivi en cours

67
Joueur Club Statut Capacité Confiance Observé Dernière observation Dernier vote
Álvaro Montoro Botafogo Actif 144 / 140 40% 12 02.12.2028 -
Franco Mastantuono Córdoba Actif 146 / 149 40% 2 02.12.2028 -
Jacob Peter Hödl Sturm Graz Actif 129 / 132 40% 5 01.12.2028 -
Ibrahim Mbaye Queens Park Rangers Actif 141 / 148 40% 3 01.12.2028 -
Geovany Quenda Watford Actif 157 / 157 40% 8 30.11.2028 -
Harry Gray Harrogate Town Actif 130 / 138 40% 3 30.11.2028 -
Ryan McAidoo Oldham Athletic Actif 130 / 137 40% 1 30.11.2028 -
Alex Verón Vélez Actif 110 / 118 40% 9 29.11.2028 -
Hugo Camberos Dorados Actif 129 / 139 40% 4 29.11.2028 -
Aarón Ochoa Málaga Actif 121 / 132 40% 2 29.11.2028 -
Matías Arias Vélez Actif 121 / 125 40% 5 27.11.2028 -
Babis Kostoulas Oxford United Actif 145 / 151 40% 5 23.11.2028 -
Rio Ngumoha Plymouth Argyle Actif 147 / 149 40% 7 23.11.2028 -
Celías Ingenthron Platense Actif 114 / 130 40% 3 22.11.2028 -
Luka Andrade Montevideo City Torque Actif 107 / 114 40% 4 22.11.2028 -
Luis Otávio Orlando City Actif 122 / 123 40% 5 20.11.2028 -
Santiago Segovia Rosario Central Actif 110 / 124 40% 5 16.11.2028 -
Mihajlo Cvetković Club Brugge Actif 136 / 134 40% 1 16.11.2028 -
Estêvão Portsmouth Actif 157 / 157 40% 3 13.11.2028 -
Julian Hall Real Salt Lake Actif 105 / 114 40% 5 08.11.2028 -
Vakhtang Salia Shonan Bellmare Actif 106 / 106 40% 6 08.11.2028 -
Yan Diomandé Oviedo Actif 162 / 166 40% 4 06.11.2028 -
Lucca São Paulo Actif 124 / 123 40% 3 06.11.2028 -
Johannes Moser Sturm Graz Actif 109 / 118 40% 2 05.11.2028 -
Mikey Moore Stockport County Actif 139 / 148 40% 5 30.10.2028 -
Sebastian Rodriguez Houston Dynamo Actif 120 / 125 40% 2 25.10.2028 -
Lisandro Piñero Banfield Actif 130 / 126 40% 5 23.10.2028 -
Martín Jiménez Iquique Actif 101 / 107 40% 2 23.10.2028 -
Tahiel Peralta Racing Club Actif 108 / 117 40% 4 22.10.2028 -
Ethan Nwaneri Arsenal Actif 155 / 159 40% 4 22.10.2028 -
Olivier Mambwa Young Boys Actif 114 / 124 40% 2 17.10.2028 -
Valentino Huertas Morón Actif 101 / 106 40% 2 15.10.2028 -
Matias Siltanen Malmo FF Actif 129 / 131 40% 2 11.10.2028 -
Peyton Miller New England Revolution Actif 121 / 125 40% 1 06.10.2028 -
Pablo Lago Juventud Actif 101 / 108 40% 1 11.09.2028 -
Nicolás Barros Schelotto Gimnasia La Plata Actif 126 / 123 40% 1 06.09.2028 -
Carl Klaus St. Pauli Rapport prêt 112 / 113 79% 1 28.08.2028 -
Mamoutou Berthé US Bougouba Perdu 105 / 112 40% 1 21.08.2028 -
Otto Stange Borussia Mönchengladbach Actif 133 / 137 40% 1 21.08.2028 -
Honest Ahanor Atalanta Actif 141 / 149 40% 4 14.08.2028 -
Jake Evans Crewe Alexandra Négociation 113 / 126 40% 3 01.08.2028 -
André Miranda Porto Actif 118 / 124 40% 1 01.08.2028 -
Héctor Fort Real Sociedad Actif 149 / 148 40% 7 03.07.2028 -
Andrey Ivlev Nizhniy Novgorod Actif 115 / 122 40% 1 03.07.2028 -
Giovanni Leoni Lincoln City Actif 142 / 147 40% 3 26.06.2028 -
Josh Nichols Oldham Athletic Actif 125 / 127 40% 6 26.06.2028 -
Joël Schmied Köln Rapport prêt 135 / 133 79% 1 26.06.2028 -
Ayden Heaven Portsmouth Actif 145 / 149 40% 3 19.06.2028 -
Igor Tyjon Barrow AFC Actif 115 / 124 40% 1 12.06.2028 -
Trey Nyoni Rotherham United Actif 139 / 148 40% 3 31.05.2028 -
Jorge Salinas Racing Santander Actif 134 / 139 40% 5 30.05.2028 -
Martim Cunha Porto Actif 105 / 113 40% 4 28.05.2028 -
Daniel Banjaqui Benfica Actif 125 / 129 40% 2 27.05.2028 -
Andrea Cogoni Cosenza Actif 108 / 118 40% 1 26.05.2028 -
Riquelme Thompson-Jones Accrington Stanley Actif 113 / 118 40% 4 24.05.2028 -
Marc Bernal Sevilla Actif 147 / 151 40% 3 20.05.2028 -
Kiani Inge Groningen Actif 110 / 117 40% 1 20.05.2028 -
Pau Cubarsí Real Sociedad Actif 164 / 163 40% 2 17.05.2028 -
Andrija Bulatović Chamois Niortais Actif 123 / 131 40% 2 10.05.2028 -
Givairo Read Feyenoord Actif 148 / 152 40% 3 08.05.2028 -
Jan Bürger Northampton Town Actif 124 / 124 40% 1 08.05.2028 -
Bernardo Lima Porto Actif 106 / 116 40% 1 05.05.2028 -
Illaijh de Ruijter ADO Den Haag Actif 121 / 128 40% 1 02.05.2028 -
Jorthy Mokio ADO Den Haag Actif 132 / 136 40% 2 01.05.2028 -
Christos Mouzakitis Hull City Actif 137 / 139 40% 1 10.04.2028 -
Tyler Fletcher Rotherham United Actif 109 / 115 40% 1 06.04.2028 -
Adam Hložek TSG Hoffenheim Actif 138 / 141 69% 1 01.06.2027 -